METAR Formatted Surface Weather Observation
Issued by NWS

Home | Current Version | Previous Version | Text Only | Print | Product List | Glossary On
Versions: 1 2 3 4 5 6 7 8 9 10 11 12 13 14 15 16 17 18 19 20 21 22 23 24 25 26 27 28 29 30 31 32 33 34 35 36 37 38 39 40 41 42 43 44 45 46 47 48 49 50
000
SAUS44 KCRP 021657
MTRNGP
METAR KNGP 021656Z 16017G23KT 10SM FEW013 SCT017 BKN023 31/27 A2988
RMK AO2 PK WND 17026/1631 SLP118 T03110267 $



USA.gov is the U.S. government's official web portal to all federal, state and local government web resources and services.